Iridium 15 - Orbit

View from above orbital plane
View from above orbital plane
View from above satellite
View from above satellite

Ground track
Ground track

The orbit data is extracted from the following two-line orbital elements,

1 24869U 97034A   13169.40259946  .00000270  00000-0  89511-4 0  4465
2 24869 086.3974 271.9492 0002227 110.9865 291.8689 14.34214463834689
Epoch (UTC): 18 June 2013 09:39:44
Eccentricity: 0.0002227
inclination: 86.3974°
perigee height: 776 km
apogee height: 779 km
right ascension of ascending node: 271.9492°
argument of perigee: 110.9865°
revolutions per day: 14.34214463
mean anomaly at epoch: 291.8689°
orbit number at epoch: 83468

The dashed part of the orbit path shows where the satellite is in the earth's shadow,  

Developed and maintained by Chris Peat, Heavens-Above GmbH. Please read the updated FAQ before sending e-mail. Imprint. DLR